Regional Weather Roundup
Issued by NWS Jackson, KY

Home | Current Version | Previous Version | Graphics & Text | Print | Product List | Glossary On
Versions: 1 2 3 4 5 6 7 8 9 10 11 12 13 14 15 16 17 18 19 20 21 22 23 24 25 26 27 28 29 30 31 32 33 34 35 36 37 38 39 40 41 42 43 44 45 46 47 48 49 50
910
ASUS43 KJKL 122010
RWRJKL

EAST KENTUCKY HOURLY WEATHER ROUNDUP
NATIONAL WEATHER SERVICE JACKSON KY
300 PM EST FRI FEB 12 2016

NOTE: "FAIR" INDICATES FEW OR NO CLOUDS BELOW 12,000 FEET WITH
NO SIGNIFICANT WEATHER AND/OR OBSTRUCTIONS TO VISIBILITY.

* THESE REPORTS ARE NOT UNDER NWS QUALITY CONTROL AND MAY NOT
  REPORT WEATHER SUCH AS PRECIPITATION AND FOG.

KYZ079-080-083-085-087-088-110-112-115-119-120-122100
...EASTERN KENTUCKY...

CITY           SKY/WX    TMP DP  RH WIND       PRES   REMARKS
JACKSON        CLOUDY    31  20  63 SW8       30.04F WCI  23
LONDON         CLOUDY    30  23  75 W10G18    30.08F WCI  21
SOMERSET*      CLOUDY    30  25  80 W13       30.14S WCI  20
MONTICELLO*    CLOUDY    32  26  78 W15G21    30.14F WCI  22
WILLIAMSBURG*  CLOUDY    32  27  80 W7        30.10F WCI  26
MIDDLESBORO*   CLOUDY    33  27  79 W6        30.09S WCI  27
HARLAN APT*    CLOUDY    32  27  80 SW10G16   30.05S WCI  24
HAZARD APT*    CLOUDY    27  19  74 W8        30.06F WCI  18
BLACK MTN*       N/A     21  21 100 SW3         N/A
BIG SANDY*     CLOUDY    31  19  62 W7        30.03F WCI  24
MOREHEAD APT*  CLOUDY    32  16  51 W9G17     30.07F WCI  24
$$

KYZ035-036-041-042-044-050-067-078-099-122100
...CENTRAL KENTUCKY...

CITY           SKY/WX    TMP DP  RH WIND       PRES   REMARKS
MT STERLING*   CLOUDY    32  23  69 W12       30.09S WCI  23
DANVILLE*      CLOUDY    32  23  69 W14G21    30.12S WCI  22
RICHMOND*      CLOUDY    32  21  64 W13       30.09S WCI  22
LEXINGTON      CLOUDY    31  21  66 W14       30.09S WCI  21
FRANKFORT      CLOUDY    32  19  58 W10       30.10S WCI  24
$$

KYZ091>093-OHZ055-061-077-WVZ005-015-034-035-042-122100
...SOUTHERN OHIO/WEST VIRGINIA...

CITY           SKY/WX    TMP DP  RH WIND       PRES   REMARKS
COVINGTON      CLOUDY    27  17  66 W18G25    30.08F WCI  14
COLUMBUS       CLOUDY    23   9  55 W13       30.03F WCI  11
DAYTON         CLOUDY    25  13  60 W18       30.04F WCI  11
WILMINGTON     FLURRIES  25  16  68 W15       30.03F WCI  13
HUNTINGTON     CLOUDY    32   8  36 W5        30.04F WCI  27
CHARLESTON     CLOUDY    29  11  47 VRB3      30.01F
PINEVILLE*     LGT SNOW  28  20  71 MISG      30.03S
BECKLEY        LGT SNOW  25  19  78 W9        29.91F WCI  15
$$

VAZ002-007-008-TNZ017-027-036-066-071-122100
...SOUTHWEST VIRGINIA/EAST TENNESSEE...

CITY           SKY/WX    TMP DP  RH WIND       PRES   REMARKS
BRISTOL        FLURRIES  31  28  89 SW9       30.04F WCI  23
KNOXVILLE      CLOUDY    34  30  85 SW10      30.11F WCI  26
OAK RIDGE      CLOUDY    37  32  82 W3        30.12F
CROSSVILLE     CLOUDY    36  27  69 NW13      30.09F WCI  27
NASHVILLE      CLOUDY    44  24  45 N10G18    30.17F
$$

...KEY TO REMARKS...
VSB - VISIBILITY IN MILES
WCI - WIND CHILL INDEX
HX  - HEAT INDEX

$$




USA.gov is the U.S. government's official web portal to all federal, state and local government web resources and services.